User: anonymous   Login
Location: Unspecified
(0.0000°N, 0.0000°E)
Time: 03:40:11
(UTC+00:00)
Language:

Geos 2 (Explorer 36) - Orbit

View from above orbital plane
View from above orbital plane
View from above satellite
View from above satellite

Ground track
Ground track

The orbit data is extracted from the following two-line orbital elements,

1 03093U 68002A   18230.41174880 -.00000037  00000-0  12501-3 0  9991
2 03093 105.7966  12.2679 0318203  66.9844 311.4986 12.83532128370830
Epoch (UTC): 18 August 2018 09:52:55
Eccentricity: 0.0318203
inclination: 105.7966°
perigee height: 1082 km
apogee height: 1572 km
right ascension of ascending node: 12.2679°
argument of perigee: 66.9844°
revolutions per day: 12.83532128
mean anomaly at epoch: 311.4986°
orbit number at epoch: 37083

The dashed part of the orbit path shows where the satellite is in the earth's shadow,  

DLR